When you browse on this site, cookies collect data to enhance your experience and personalize the content and advertising you see.
Visit our Privacy Policy to learn more. By continuing to use the site, you agree to this use of cookies and data.
  • En España
  • Lista de países
  • Para 7 días
  • Temperatura del agua
  • El tiempo en el mapa
  • Informadores
  • user-avatar
    Iniciar sesión

    Tiempo cada hora Maceio

    Hoy, 24 Febrero, Lunes

    Tiempo Temperatura Precipitaciones Viento Presión Humedad
    00:00 +28°C° 0.1 mm 4 mps 759 mmHg 86%
    01:00 +28°C° 0.1 mm 4 mps 759 mmHg 87%
    02:00 +27°C° 0.2 mm 4 mps 758 mmHg 88%
    03:00 +27°C° 0.2 mm 4 mps 758 mmHg 89%
    04:00 +27°C° 0.2 mm 4 mps 758 mmHg 90%
    05:00 +27°C° 0.2 mm 4 mps 758 mmHg 90%
    06:00 +27°C° 0.2 mm 4 mps 758 mmHg 89%
    07:00 +27°C° 0.2 mm 4 mps 759 mmHg 89%
    08:00 +29°C° 0.1 mm 4 mps 759 mmHg 79%
    09:00 +32°C° 0.1 mm 4 mps 759 mmHg 70%
    10:00 +34°C° 0.1 mm 4 mps 759 mmHg 60%
    11:00 +34°C° 0 mm 4 mps 759 mmHg 56%
    12:00 +35°C° 0 mm 5 mps 758 mmHg 52%
    13:00 +36°C° 0 mm 5 mps 758 mmHg 48%
    14:00 +36°C° 0 mm 5 mps 757 mmHg 50%
    15:00 +35°C° 0 mm 5 mps 757 mmHg 52%
    16:00 +35°C° 0 mm 5 mps 756 mmHg 54%
    17:00 +33°C° 0 mm 5 mps 757 mmHg 61%
    18:00 +32°C° 0 mm 5 mps 757 mmHg 68%
    19:00 +29°C° 0 mm 5 mps 757 mmHg 75%
    20:00 +29°C° 0 mm 4 mps 758 mmHg 77%
    21:00 +29°C° 0 mm 4 mps 758 mmHg 80%
    22:00 +28°C° 0 mm 4 mps 759 mmHg 82%
    23:00 +28°C° 0 mm 4 mps 759 mmHg 84%

    Mañana, 25 Febrero, Martes

    Tiempo Temperatura Precipitaciones Viento Presión Humedad
    00:00 +27°C° 0 mm 4 mps 758 mmHg 86%
    01:00 +27°C° 0 mm 3 mps 758 mmHg 87%
    02:00 +27°C° 0 mm 3 mps 758 mmHg 87%
    03:00 +27°C° 0 mm 3 mps 758 mmHg 86%
    04:00 +28°C° 0 mm 3 mps 757 mmHg 85%
    05:00 +27°C° 0.1 mm 3 mps 758 mmHg 85%
    06:00 +27°C° 0.1 mm 3 mps 758 mmHg 85%
    07:00 +27°C° 0.1 mm 3 mps 758 mmHg 84%
    08:00 +29°C° 0.1 mm 3 mps 758 mmHg 75%
    09:00 +31°C° 0.1 mm 3 mps 759 mmHg 66%
    10:00 +34°C° 0.1 mm 3 mps 759 mmHg 57%
    11:00 +35°C° 0 mm 3 mps 758 mmHg 53%
    12:00 +35°C° 0 mm 4 mps 758 mmHg 50%
    13:00 +36°C° 0 mm 4 mps 758 mmHg 47%
    14:00 +36°C° 0 mm 4 mps 757 mmHg 49%
    15:00 +35°C° 0 mm 4 mps 757 mmHg 50%
    16:00 +35°C° 0 mm 5 mps 756 mmHg 52%
    17:00 +33°C° 0 mm 5 mps 756 mmHg 60%
    18:00 +32°C° 0 mm 5 mps 756 mmHg 68%
    19:00 +29°C° 0 mm 5 mps 756 mmHg 76%
    20:00 +29°C° 0 mm 5 mps 757 mmHg 78%
    21:00 +29°C° 0 mm 5 mps 757 mmHg 81%
    22:00 +28°C° 0 mm 5 mps 758 mmHg 84%
    23:00 +28°C° 0 mm 4 mps 758 mmHg 85%

    Pasado mañana, 26 Febrero, Miércoles

    Tiempo Temperatura Precipitaciones Viento Presión Humedad
    00:00 +28°C° 0 mm 4 mps 758 mmHg 86%
    01:00 +27°C° 0 mm 3 mps 758 mmHg 87%
    02:00 +27°C° 0 mm 3 mps 758 mmHg 87%
    03:00 +27°C° 0 mm 3 mps 757 mmHg 88%
    04:00 +27°C° 0 mm 3 mps 757 mmHg 88%
    05:00 +27°C° 0 mm 3 mps 757 mmHg 87%
    06:00 +27°C° 0 mm 3 mps 757 mmHg 86%
    07:00 +27°C° 0 mm 3 mps 757 mmHg 85%
    08:00 +29°C° 0 mm 3 mps 757 mmHg 74%
    09:00 +31°C° 0 mm 3 mps 757 mmHg 64%
    10:00 +34°C° 0 mm 3 mps 758 mmHg 54%
    11:00 +35°C° 0 mm 4 mps 757 mmHg 49%
    12:00 +36°C° 0 mm 4 mps 757 mmHg 45%
    13:00 +37°C° 0 mm 4 mps 757 mmHg 40%
    14:00 +36°C° 0 mm 5 mps 756 mmHg 43%
    15:00 +36°C° 0 mm 5 mps 756 mmHg 47%
    16:00 +35°C° 0 mm 5 mps 755 mmHg 50%
    17:00 +33°C° 0 mm 5 mps 755 mmHg 58%
    18:00 +32°C° 0 mm 5 mps 755 mmHg 66%
    19:00 +29°C° 0 mm 5 mps 755 mmHg 74%
    20:00 +29°C° 0.1 mm 5 mps 756 mmHg 78%
    21:00 +28°C° 0.1 mm 5 mps 756 mmHg 82%
    22:00 +28°C° 0.1 mm 6 mps 757 mmHg 86%
    23:00 +28°C° 0.1 mm 5 mps 757 mmHg 87%

    27 Febrero, Jueves

    Tiempo Temperatura Precipitaciones Viento Presión Humedad
    00:00 +27°C° 0.1 mm 5 mps 757 mmHg 88%
    01:00 +27°C° 0.1 mm 4 mps 757 mmHg 89%
    02:00 +27°C° 0 mm 4 mps 757 mmHg 90%
    03:00 +27°C° 0 mm 3 mps 757 mmHg 91%
    04:00 +26°C° 0 mm 3 mps 757 mmHg 92%
    05:00 +26°C° 0.1 mm 3 mps 757 mmHg 91%
    06:00 +26°C° 0.1 mm 3 mps 757 mmHg 91%
    07:00 +26°C° 0.1 mm 3 mps 757 mmHg 91%
    08:00 +28°C° 0.2 mm 3 mps 758 mmHg 81%
    09:00 +30°C° 0.2 mm 3 mps 758 mmHg 71%
    10:00 +33°C° 0.2 mm 4 mps 758 mmHg 61%
    11:00 +34°C° 0 mm 4 mps 758 mmHg 58%
    12:00 +35°C° 0 mm 5 mps 758 mmHg 55%
    13:00 +36°C° 0 mm 5 mps 757 mmHg 52%
    14:00 +36°C° 0 mm 5 mps 757 mmHg 54%
    15:00 +35°C° 0 mm 5 mps 756 mmHg 55%
    16:00 +35°C° 0 mm 6 mps 756 mmHg 56%
    17:00 +33°C° 0 mm 6 mps 756 mmHg 61%
    18:00 +32°C° 0 mm 6 mps 756 mmHg 67%
    19:00 +29°C° 0 mm 6 mps 756 mmHg 72%
    20:00 +29°C° 0 mm 6 mps 756 mmHg 75%
    21:00 +28°C° 0 mm 6 mps 757 mmHg 77%
    22:00 +28°C° 0 mm 6 mps 757 mmHg 80%
    23:00 +28°C° 0 mm 5 mps 757 mmHg 82%

    28 Febrero, Viernes

    Tiempo Temperatura Precipitaciones Viento Presión Humedad
    00:00 +27°C° 0 mm 5 mps 757 mmHg 85%
    01:00 +27°C° 0 mm 4 mps 757 mmHg 87%
    02:00 +27°C° 0 mm 4 mps 757 mmHg 89%
    03:00 +26°C° 0 mm 3 mps 757 mmHg 92%
    04:00 +26°C° 0 mm 3 mps 757 mmHg 94%
    05:00 +26°C° 0 mm 3 mps 757 mmHg 93%
    06:00 +26°C° 0 mm 3 mps 757 mmHg 92%
    07:00 +26°C° 0 mm 3 mps 758 mmHg 90%
    08:00 +29°C° 0 mm 3 mps 758 mmHg 80%
    09:00 +31°C° 0 mm 3 mps 759 mmHg 69%
    10:00 +34°C° 0 mm 3 mps 759 mmHg 59%
    11:00 +35°C° 0 mm 4 mps 759 mmHg 55%
    12:00 +36°C° 0 mm 4 mps 758 mmHg 51%
    13:00 +37°C° 0 mm 5 mps 758 mmHg 48%
    14:00 +36°C° 0 mm 5 mps 757 mmHg 52%
    15:00 +35°C° 0 mm 5 mps 756 mmHg 57%
    16:00 +34°C° 0 mm 6 mps 756 mmHg 61%
    17:00 +33°C° 0 mm 5 mps 756 mmHg 67%
    18:00 +32°C° 0 mm 5 mps 756 mmHg 72%
    19:00 +30°C° 0 mm 5 mps 757 mmHg 78%
    20:00 +29°C° 0 mm 5 mps 757 mmHg 81%
    21:00 +29°C° 0 mm 5 mps 758 mmHg 84%
    22:00 +28°C° 0 mm 4 mps 758 mmHg 87%
    23:00 +28°C° 0.1 mm 4 mps 758 mmHg 87%

    29 Febrero, Sábado

    Tiempo Temperatura Precipitaciones Viento Presión Humedad
    00:00 +28°C° 0.1 mm 4 mps 758 mmHg 88%
    01:00 +28°C° 0.1 mm 3 mps 758 mmHg 88%
    02:00 +28°C° 0.1 mm 3 mps 758 mmHg 89%
    03:00 +27°C° 0.1 mm 3 mps 757 mmHg 91%
    04:00 +27°C° 0.1 mm 2 mps 757 mmHg 93%
    05:00 +27°C° 0.1 mm 2 mps 757 mmHg 92%
    06:00 +27°C° 0.1 mm 2 mps 758 mmHg 91%
    07:00 +28°C° 0.1 mm 2 mps 758 mmHg 90%
    08:00 +30°C° 0.1 mm 2 mps 758 mmHg 79%
    09:00 +33°C° 0.1 mm 3 mps 759 mmHg 67%
    10:00 +35°C° 0.1 mm 4 mps 759 mmHg 56%
    11:00 +35°C° 0 mm 4 mps 759 mmHg 53%
    12:00 +36°C° 0 mm 4 mps 758 mmHg 51%
    13:00 +37°C° 0 mm 4 mps 758 mmHg 48%
    14:00 +36°C° 0 mm 4 mps 757 mmHg 49%
    15:00 +36°C° 0 mm 4 mps 757 mmHg 51%
    16:00 +35°C° 0 mm 4 mps 756 mmHg 52%
    17:00 +34°C° 0 mm 4 mps 756 mmHg 60%
    18:00 +32°C° 0 mm 4 mps 756 mmHg 67%
    19:00 +30°C° 0 mm 4 mps 756 mmHg 74%
    20:00 +29°C° 0 mm 4 mps 757 mmHg 78%
    21:00 +29°C° 0 mm 4 mps 757 mmHg 81%
    22:00 +28°C° 0 mm 3 mps 758 mmHg 84%
    23:00 +28°C° 0 mm 3 mps 758 mmHg 86%
    Mostrar más